Location: Krakow
(50.0212°N, 19.9423°E)
Time: 00:23:46
(UTC+02:00)

NOAA 18 - Pass Details

Date: 22 August 2024
Orbit: 837 x 859 km, 98.9° (Epoch: 19 September)

Event Time Altitude Azimuth Distance (km) Brightness Sun altitude
Exits shadow 20:24:30 - 88° (E) 3,013 7.5 -6.8°
Reaches altitude 10° 20:27:02 10° 68° (ENE) 2,502 7.3 -7.2°
Maximum altitude 20:28:58 12° 47° (NE) 2,368 7.4 -7.4°
Drops below altitude 10° 20:30:55 10° 26° (NNE) 2,505 7.7 -7.7°
Sets 20:34:58 0° 357° (N) 3,445 8.9 -8.3°
